QPF
0.08 0.08 0.06 0.04 0.02 0.02 0.02 0.02 0.02 0.02 0.02 0.03 0.04 0.04 0.03 0.03 0.02 0.02 0.01 0.02 0.02 0.03 0.03 0.03 0.03 0.03 0.03 0.02 0.02 0.03 0.03 0.02 0.03 0.05 0.06 0.07 0.07 0.08
0.05 0.07 0.09 0.08 0.05 0.04 0.03 0.02 0.02 0.03 0.03 0.03 0.05 0.06 0.05 0.04 0.03 0.02 0.02 0.03 0.03 0.03 0.04 0.03 0.03 0.03 0.04 0.04 0.03 0.03 0.03 0.02 0.02 0.02 0.03 0.04 0.05 0.06
0.03 0.04 0.05 0.07 0.07 0.06 0.05 0.04 0.03 0.03 0.03 0.03 0.05 0.07 0.06 0.04 0.03 0.03 0.03 0.04 0.04 0.04 0.05 0.05 0.04 0.04 0.03 0.04 0.04 0.03 0.03 0.03 0.03 0.02 0.02 0.03 0.04 0.04
0.05 0.04 0.04 0.04 0.05 0.05 0.05 0.05 0.05 0.04 0.04 0.04 0.04 0.06 0.07 0.05 0.03 0.02 0.02 0.03 0.02 0.03 0.04 0.05 0.06 0.06 0.05 0.05 0.05 0.04 0.03 0.03 0.03 0.03 0.03 0.03 0.03 0.03
0.05 0.05 0.05 0.04 0.04 0.04 0.04 0.04 0.05 0.05 0.05 0.05 0.05 0.06 0.07 0.06 0.04 0.03 0.02 0.02 0.01 0.01 0.02 0.03 0.06 0.07 0.07 0.07 0.07 0.06 0.05 0.04 0.04 0.03 0.03 0.02 0.03 0.03
0.05 0.05 0.04 0.04 0.04 0.04 0.04 0.04 0.05 0.05 0.05 0.06 0.05 0.06 0.07 0.07 0.05 0.04 0.03 0.02 0.02 0.01 0.01 0.01 0.02 0.05 0.07 0.07 0.07 0.08 0.07 0.06 0.06 0.06 0.05 0.04 0.04 0.04
0.06 0.05 0.05 0.05 0.05 0.05 0.04 0.04 0.05 0.05 0.05 0.06 0.05 0.06 0.07 0.07 0.05 0.04 0.03 0.03 0.02 0.02 0.01 0.01 0.01 0.02 0.04 0.06 0.07 0.07 0.06 0.06 0.05 0.05 0.06 0.06 0.05 0.05
0.05 0.05 0.05 0.05 0.05 0.06 0.05 0.05 0.06 0.06 0.06 0.06 0.06 0.06 0.05 0.05 0.04 0.04 0.03 0.03 0.02 0.01 0.01 0.01 0.01 0.01 0.02 0.03 0.05 0.06 0.05 0.05 0.05 0.04 0.04 0.04 0.05 0.05
0.05 0.05 0.05 0.05 0.05 0.05 0.05 0.05 0.05 0.05 0.05 0.05 0.05 0.05 0.04 0.04 0.04 0.04 0.03 0.02 0.02 0.01 0.01 0.02 0.01 0.01 0.01 0.02 0.03 0.03 0.04 0.04 0.04 0.04 0.04 0.04 0.04 0.04
0.04 0.05 0.06 0.06 0.06 0.05 0.05 0.05 0.05 0.04 0.04 0.03 0.03 0.03 0.03 0.03 0.04 0.04 0.03 0.02 0.01 0.01 0.01 0.01 0.02 0.02 0.01 0.02 0.03 0.03 0.03 0.03 0.03 0.04 0.05 0.05 0.04 0.04
0.02 0.02 0.03 0.04 0.05 0.05 0.05 0.05 0.04 0.04 0.03 0.03 0.02 0.03 0.04 0.04 0.04 0.04 0.03 0.02 0.02 0.01 0.01 0.01 0.02 0.02 0.02 0.02 0.02 0.03 0.02 0.02 0.03 0.03 0.04 0.05 0.05 0.04
0.02 0.02 0.02 0.02 0.03 0.03 0.04 0.05 0.04 0.03 0.03 0.03 0.03 0.02 0.03 0.03 0.04 0.04 0.03 0.02 0.02 0.02 0.01 0.01 0.01 0.02 0.03 0.03 0.03 0.03 0.02 0.03 0.03 0.03 0.03 0.04 0.04 0.04
0.03 0.03 0.02 0.03 0.04 0.04 0.05 0.04 0.03 0.03 0.03 0.03 0.03 0.03 0.03 0.03 0.03 0.03 0.03 0.02 0.02 0.01 0.01 0.01 0.02 0.02 0.02 0.03 0.04 0.03 0.02 0.03 0.03 0.03 0.03 0.03 0.03 0.03
0.03 0.03 0.03 0.03 0.04 0.04 0.04 0.03 0.03 0.03 0.04 0.04 0.04 0.04 0.03 0.03 0.03 0.03 0.02 0.01 0.01 0.01 0.01 0.01 0.02 0.02 0.02 0.02 0.03 0.03 0.02 0.02 0.02 0.03 0.03 0.04 0.04 0.03
0.02 0.02 0.03 0.03 0.03 0.03 0.03 0.03 0.03 0.04 0.04 0.05 0.04 0.03 0.02 0.02 0.03 0.04 0.04 0.03 0.02 0.01 0.01 0.01 0.01 0.01 0.02 0.02 0.02 0.02 0.03 0.03 0.02 0.02 0.03 0.03 0.03 0.03
0.03 0.03 0.02 0.02 0.02 0.03 0.03 0.03 0.04 0.04 0.05 0.05 0.04 0.02 0.02 0.03 0.04 0.04 0.05 0.05 0.05 0.04 0.03 0.03 0.02 0.02 0.03 0.02 0.02 0.02 0.02 0.03 0.03 0.03 0.03 0.03 0.02 0.02
0.04 0.04 0.03 0.03 0.03 0.03 0.03 0.03 0.03 0.04 0.05 0.05 0.04 0.03 0.03 0.03 0.03 0.04 0.04 0.05 0.05 0.04 0.04 0.04 0.04 0.04 0.04 0.04 0.03 0.03 0.02 0.03 0.03 0.03 0.03 0.03 0.03 0.02
0.04 0.04 0.03 0.03 0.03 0.02 0.02 0.03 0.03 0.03 0.03 0.04 0.04 0.04 0.04 0.03 0.03 0.03 0.04 0.04 0.04 0.04 0.04 0.03 0.04 0.06 0.08 0.07 0.05 0.04 0.03 0.04 0.04 0.04 0.04 0.03 0.03 0.03
0.05 0.04 0.03 0.02 0.02 0.02 0.02 0.02 0.02 0.02 0.02 0.03 0.03 0.03 0.03 0.03 0.03 0.04 0.04 0.05 0.05 0.05 0.04 0.04 0.04 0.05 0.06 0.07 0.06 0.04 0.04 0.04 0.05 0.05 0.04 0.04 0.03 0.03
0.04 0.03 0.03 0.02 0.02 0.02 0.02 0.02 0.02 0.02 0.03 0.03 0.03 0.03 0.03 0.03 0.03 0.03 0.04 0.05 0.05 0.05 0.05 0.05 0.05 0.04 0.05 0.04 0.04 0.05 0.04 0.04 0.04 0.05 0.04 0.04 0.04 0.04
0.04 0.03 0.03 0.02 0.02 0.02 0.02 0.02 0.02 0.02 0.03 0.03 0.04 0.03 0.03 0.03 0.04 0.03 0.04 0.04 0.05 0.05 0.05 0.05 0.04 0.04 0.05 0.05 0.06 0.06 0.05 0.04 0.04 0.04 0.04 0.04 0.05 0.05
0.05 0.04 0.03 0.03 0.03 0.02 0.02 0.02 0.02 0.02 0.03 0.03 0.03 0.03 0.03 0.03 0.04 0.03 0.04 0.04 0.05 0.05 0.04 0.04 0.05 0.06 0.07 0.07 0.07 0.06 0.06 0.06 0.05 0.04 0.04 0.04 0.05 0.05
0.05 0.04 0.03 0.02 0.02 0.02 0.02 0.02 0.02 0.02 0.02 0.03 0.03 0.03 0.03 0.03 0.04 0.04 0.04 0.04 0.04 0.05 0.05 0.05 0.06 0.06 0.07 0.06 0.06 0.06 0.05 0.05 0.05 0.06 0.07 0.05 0.04 0.04
MSLP
1029.63 1029.65 1029.71 1029.78 1029.83 1029.82 1029.73 1029.54 1029.26 1028.90 1028.49 1028.04 1027.57 1027.09 1026.59 1026.07 1025.51 1024.90 1024.25 1023.57 1022.88 1022.21 1021.60 1021.09 1020.69 1020.42 1020.26 1020.21 1020.23 1020.29 1020.35 1020.38 1020.36 1020.28 1020.16 1020.00 1019.81 1019.64
1029.75 1029.72 1029.73 1029.75 1029.74 1029.69 1029.58 1029.40 1029.15 1028.85 1028.52 1028.16 1027.79 1027.40 1026.99 1026.54 1026.05 1025.51 1024.93 1024.31 1023.69 1023.09 1022.54 1022.06 1021.68 1021.39 1021.20 1021.09 1021.03 1021.01 1021.00 1020.97 1020.91 1020.82 1020.70 1020.55 1020.40 1020.24
1029.82 1029.74 1029.67 1029.61 1029.53 1029.42 1029.28 1029.10 1028.89 1028.65 1028.41 1028.15 1027.89 1027.60 1027.29 1026.93 1026.53 1026.07 1025.57 1025.04 1024.49 1023.96 1023.47 1023.03 1022.67 1022.37 1022.15 1021.98 1021.86 1021.76 1021.68 1021.60 1021.52 1021.42 1021.32 1021.21 1021.10 1021.00
1029.84 1029.69 1029.55 1029.40 1029.24 1029.07 1028.88 1028.69 1028.50 1028.32 1028.15 1027.99 1027.82 1027.63 1027.41 1027.15 1026.83 1026.46 1026.03 1025.58 1025.11 1024.66 1024.23 1023.85 1023.51 1023.22 1022.97 1022.76 1022.58 1022.43 1022.29 1022.17 1022.07 1021.99 1021.93 1021.87 1021.83 1021.78
1029.79 1029.59 1029.38 1029.15 1028.92 1028.67 1028.44 1028.22 1028.03 1027.88 1027.76 1027.66 1027.56 1027.45 1027.30 1027.11 1026.86 1026.55 1026.21 1025.83 1025.45 1025.07 1024.72 1024.39 1024.09 1023.82 1023.57 1023.34 1023.12 1022.92 1022.74 1022.60 1022.50 1022.44 1022.42 1022.43 1022.46 1022.49
1029.63 1029.41 1029.15 1028.86 1028.56 1028.25 1027.97 1027.72 1027.52 1027.36 1027.26 1027.19 1027.12 1027.05 1026.94 1026.79 1026.58 1026.33 1026.04 1025.74 1025.44 1025.14 1024.86 1024.61 1024.36 1024.13 1023.89 1023.65 1023.42 1023.19 1022.99 1022.84 1022.74 1022.71 1022.74 1022.82 1022.93 1023.04
1029.37 1029.13 1028.85 1028.53 1028.18 1027.83 1027.50 1027.21 1026.98 1026.81 1026.69 1026.61 1026.55 1026.47 1026.37 1026.23 1026.04 1025.82 1025.58 1025.34 1025.10 1024.88 1024.69 1024.51 1024.33 1024.14 1023.94 1023.72 1023.48 1023.25 1023.05 1022.89 1022.80 1022.79 1022.86 1023.00 1023.19 1023.38
1028.98 1028.75 1028.47 1028.13 1027.77 1027.39 1027.04 1026.72 1026.46 1026.26 1026.11 1025.99 1025.90 1025.80 1025.67 1025.52 1025.33 1025.12 1024.91 1024.70 1024.52 1024.38 1024.25 1024.15 1024.04 1023.91 1023.76 1023.57 1023.36 1023.14 1022.94 1022.79 1022.71 1022.72 1022.83 1023.01 1023.25 1023.51
1028.50 1028.28 1028.01 1027.69 1027.33 1026.95 1026.59 1026.25 1025.97 1025.73 1025.55 1025.39 1025.26 1025.11 1024.95 1024.76 1024.56 1024.35 1024.14 1023.96 1023.82 1023.72 1023.66 1023.62 1023.57 1023.51 1023.41 1023.27 1023.10 1022.91 1022.73 1022.60 1022.54 1022.56 1022.69 1022.90 1023.18 1023.48
1027.94 1027.74 1027.50 1027.20 1026.86 1026.51 1026.15 1025.82 1025.53 1025.28 1025.06 1024.87 1024.69 1024.51 1024.31 1024.08 1023.85 1023.61 1023.40 1023.22 1023.09 1023.02 1022.99 1022.99 1023.00 1023.00 1022.96 1022.88 1022.76 1022.61 1022.48 1022.37 1022.34 1022.38 1022.52 1022.75 1023.04 1023.38
1027.35 1027.17 1026.95 1026.69 1026.39 1026.07 1025.74 1025.43 1025.15 1024.90 1024.67 1024.47 1024.26 1024.04 1023.81 1023.55 1023.28 1023.01 1022.76 1022.56 1022.42 1022.34 1022.32 1022.33 1022.37 1022.41 1022.43 1022.41 1022.35 1022.28 1022.21 1022.16 1022.16 1022.23 1022.38 1022.62 1022.92 1023.26
1026.75 1026.59 1026.40 1026.17 1025.92 1025.64 1025.36 1025.08 1024.83 1024.60 1024.38 1024.18 1023.96 1023.73 1023.47 1023.18 1022.87 1022.56 1022.27 1022.01 1021.83 1021.70 1021.65 1021.66 1021.70 1021.76 1021.83 1021.88 1021.90 1021.91 1021.92 1021.95 1022.01 1022.13 1022.31 1022.55 1022.86 1023.19
1026.15 1026.01 1025.84 1025.66 1025.44 1025.22 1024.99 1024.76 1024.55 1024.36 1024.17 1023.99 1023.78 1023.55 1023.27 1022.96 1022.61 1022.25 1021.89 1021.57 1021.31 1021.11 1021.00 1020.96 1020.98 1021.05 1021.15 1021.27 1021.38 1021.49 1021.61 1021.74 1021.88 1022.07 1022.29 1022.55 1022.85 1023.18
1025.54 1025.41 1025.28 1025.13 1024.97 1024.80 1024.62 1024.45 1024.29 1024.15 1024.00 1023.85 1023.67 1023.45 1023.17 1022.84 1022.46 1022.04 1021.61 1021.20 1020.84 1020.55 1020.34 1020.23 1020.21 1020.27 1020.40 1020.57 1020.77 1020.99 1021.23 1021.47 1021.73 1021.99 1022.28 1022.57 1022.88 1023.18
1024.88 1024.79 1024.69 1024.59 1024.47 1024.35 1024.23 1024.12 1024.02 1023.93 1023.84 1023.73 1023.59 1023.39 1023.12 1022.78 1022.37 1021.90 1021.39 1020.89 1020.41 1020.01 1019.70 1019.49 1019.41 1019.43 1019.57 1019.78 1020.07 1020.39 1020.75 1021.12 1021.48 1021.85 1022.20 1022.53 1022.85 1023.14
1024.16 1024.10 1024.06 1024.00 1023.94 1023.88 1023.81 1023.76 1023.72 1023.69 1023.65 1023.60 1023.50 1023.33 1023.09 1022.74 1022.31 1021.79 1021.22 1020.62 1020.04 1019.51 1019.08 1018.78 1018.61 1018.58 1018.70 1018.94 1019.28 1019.69 1020.16 1020.64 1021.11 1021.56 1021.98 1022.36 1022.69 1022.98
1023.34 1023.35 1023.35 1023.36 1023.35 1023.34 1023.34 1023.35 1023.36 1023.39 1023.41 1023.41 1023.37 1023.25 1023.03 1022.71 1022.27 1021.72 1021.09 1020.42 1019.74 1019.10 1018.55 1018.13 1017.87 1017.77 1017.85 1018.08 1018.45 1018.92 1019.46 1020.02 1020.58 1021.11 1021.59 1022.00 1022.35 1022.63
1022.46 1022.52 1022.59 1022.65 1022.70 1022.75 1022.80 1022.87 1022.94 1023.03 1023.11 1023.18 1023.19 1023.13 1022.96 1022.67 1022.24 1021.69 1021.03 1020.30 1019.55 1018.81 1018.16 1017.63 1017.26 1017.08 1017.09 1017.28 1017.64 1018.12 1018.69 1019.30 1019.91 1020.49 1021.01 1021.45 1021.80 1022.08
1021.53 1021.65 1021.77 1021.89 1022.00 1022.10 1022.20 1022.32 1022.45 1022.60 1022.75 1022.88 1022.96 1022.97 1022.86 1022.62 1022.24 1021.71 1021.06 1020.30 1019.49 1018.69 1017.95 1017.32 1016.84 1016.56 1016.48 1016.60 1016.91 1017.36 1017.91 1018.53 1019.15 1019.75 1020.28 1020.73 1021.10 1021.37
1020.59 1020.76 1020.93 1021.09 1021.24 1021.38 1021.54 1021.70 1021.89 1022.09 1022.30 1022.50 1022.66 1022.75 1022.72 1022.56 1022.24 1021.76 1021.14 1020.39 1019.56 1018.72 1017.91 1017.20 1016.63 1016.24 1016.06 1016.09 1016.31 1016.69 1017.20 1017.77 1018.38 1018.96 1019.49 1019.94 1020.31 1020.58
1019.66 1019.86 1020.05 1020.24 1020.43 1020.60 1020.79 1021.00 1021.23 1021.49 1021.76 1022.03 1022.27 1022.44 1022.51 1022.43 1022.20 1021.80 1021.23 1020.53 1019.72 1018.86 1018.02 1017.24 1016.59 1016.11 1015.83 1015.75 1015.87 1016.16 1016.59 1017.11 1017.66 1018.22 1018.73 1019.18 1019.54 1019.81
1018.74 1018.95 1019.16 1019.35 1019.55 1019.74 1019.95 1020.19 1020.45 1020.76 1021.09 1021.43 1021.74 1022.00 1022.16 1022.20 1022.07 1021.76 1021.28 1020.64 1019.88 1019.04 1018.19 1017.39 1016.68 1016.12 1015.75 1015.57 1015.59 1015.79 1016.13 1016.58 1017.08 1017.60 1018.09 1018.52 1018.88 1019.17
1017.82 1018.01 1018.20 1018.39 1018.58 1018.78 1018.99 1019.24 1019.54 1019.88 1020.25 1020.65 1021.04 1021.39 1021.64 1021.78 1021.76 1021.56 1021.19 1020.64 1019.96 1019.17 1018.35 1017.55 1016.82 1016.21 1015.77 1015.51 1015.45 1015.56 1015.83 1016.21 1016.66 1017.14 1017.61 1018.05 1018.41 1018.71
Thickness
5465 5464 5464 5464 5464 5464 5464 5464 5462 5462 5467 5470 5470 5473 5473 5474 5475 5476 5479 5481 5483 5484 5486 5487 5488 5490 5492 5494 5495 5496 5497 5498 5499 5499 5500 5502 5504 5505
5452 5452 5451 5451 5451 5451 5451 5451 5451 5452 5454 5458 5457 5458 5459 5460 5461 5463 5465 5467 5469 5470 5472 5474 5474 5476 5478 5479 5481 5482 5483 5484 5485 5485 5486 5488 5490 5490
5439 5439 5439 5438 5438 5438 5437 5437 5437 5438 5439 5442 5442 5444 5445 5446 5448 5449 5451 5453 5455 5456 5458 5459 5460 5461 5463 5464 5466 5467 5468 5469 5470 5471 5472 5474 5475 5476
5427 5426 5426 5425 5424 5424 5423 5423 5423 5424 5425 5426 5428 5428 5431 5432 5434 5435 5436 5438 5440 5441 5443 5444 5446 5447 5447 5449 5450 5452 5453 5454 5455 5456 5458 5460 5461 5461
5414 5413 5413 5412 5411 5410 5410 5410 5410 5410 5411 5412 5414 5414 5415 5417 5418 5420 5421 5423 5425 5426 5427 5429 5430 5431 5432 5433 5435 5436 5438 5439 5440 5441 5442 5444 5446 5447
5400 5400 5400 5399 5399 5398 5397 5397 5396 5396 5396 5397 5398 5400 5400 5401 5402 5404 5407 5408 5409 5411 5412 5413 5414 5416 5417 5418 5420 5421 5422 5423 5424 5426 5428 5429 5431 5433
5385 5386 5386 5386 5386 5386 5385 5384 5383 5383 5382 5383 5384 5385 5385 5385 5387 5389 5390 5392 5393 5394 5396 5397 5398 5400 5400 5402 5403 5405 5406 5408 5409 5411 5412 5414 5416 5418
5370 5371 5371 5372 5372 5373 5373 5373 5371 5369 5369 5370 5370 5371 5373 5372 5372 5373 5373 5375 5378 5379 5378 5380 5381 5383 5384 5385 5387 5389 5391 5392 5394 5395 5397 5398 5400 5403
5355 5355 5357 5357 5357 5358 5359 5359 5358 5357 5357 5357 5358 5358 5359 5359 5358 5357 5357 5360 5363 5362 5360 5364 5364 5366 5368 5369 5371 5373 5375 5377 5378 5380 5381 5383 5385 5387
5341 5341 5341 5342 5342 5343 5343 5343 5342 5342 5342 5342 5344 5345 5345 5344 5343 5343 5342 5343 5345 5344 5343 5346 5349 5350 5352 5353 5354 5356 5358 5360 5361 5363 5365 5367 5369 5371
5326 5326 5326 5327 5329 5329 5329 5328 5328 5328 5327 5328 5330 5330 5330 5329 5328 5325 5325 5325 5329 5330 5328 5328 5332 5332 5335 5337 5339 5339 5341 5342 5343 5345 5348 5350 5352 5355
5311 5311 5311 5312 5313 5314 5313 5313 5313 5314 5313 5314 5314 5315 5314 5313 5312 5311 5310 5310 5311 5313 5314 5312 5314 5313 5317 5322 5322 5322 5323 5325 5326 5328 5330 5333 5335 5337
5295 5296 5297 5297 5298 5298 5298 5298 5300 5299 5298 5298 5299 5299 5298 5297 5297 5296 5295 5295 5296 5298 5299 5296 5296 5296 5297 5304 5307 5307 5307 5309 5310 5312 5313 5316 5318 5320
5279 5280 5281 5281 5282 5282 5282 5283 5283 5282 5281 5281 5282 5283 5282 5282 5281 5281 5281 5281 5282 5283 5283 5281 5282 5282 5283 5285 5290 5293 5292 5293 5294 5296 5298 5300 5302 5303
5263 5264 5265 5265 5265 5265 5265 5265 5265 5264 5264 5264 5266 5267 5267 5266 5265 5266 5266 5265 5266 5267 5268 5268 5268 5269 5269 5272 5275 5276 5277 5279 5279 5281 5282 5284 5285 5287
5246 5247 5248 5247 5247 5247 5247 5246 5247 5247 5248 5249 5249 5249 5249 5249 5249 5249 5249 5250 5250 5253 5253 5253 5253 5254 5255 5258 5259 5262 5262 5264 5266 5265 5267 5269 5270 5271
5229 5229 5229 5229 5229 5230 5230 5230 5231 5231 5231 5231 5231 5232 5232 5233 5233 5233 5233 5234 5234 5237 5239 5239 5239 5240 5241 5243 5245 5248 5249 5250 5251 5251 5251 5253 5256 5256
5212 5211 5212 5212 5213 5214 5214 5215 5215 5215 5215 5215 5215 5216 5217 5217 5217 5218 5218 5218 5220 5222 5224 5225 5224 5224 5226 5229 5232 5234 5235 5236 5236 5236 5236 5238 5241 5243
5194 5194 5195 5195 5196 5197 5198 5198 5199 5199 5199 5199 5200 5200 5201 5201 5202 5202 5203 5203 5205 5207 5210 5210 5210 5209 5211 5216 5221 5221 5221 5221 5221 5222 5223 5224 5227 5231
5178 5178 5178 5179 5181 5182 5182 5183 5183 5184 5184 5184 5185 5185 5185 5186 5187 5187 5188 5188 5190 5193 5195 5197 5197 5199 5200 5203 5205 5208 5208 5207 5208 5210 5211 5212 5214 5218
5163 5164 5164 5165 5166 5167 5168 5168 5168 5169 5169 5169 5170 5171 5171 5171 5172 5173 5174 5176 5177 5179 5181 5185 5188 5188 5188 5187 5189 5194 5196 5196 5197 5198 5199 5199 5202 5205
5148 5149 5150 5150 5150 5151 5152 5153 5154 5155 5155 5155 5156 5157 5157 5158 5159 5160 5161 5162 5164 5165 5169 5172 5174 5174 5174 5175 5178 5181 5183 5185 5186 5186 5187 5190 5190 5194
5132 5133 5134 5136 5136 5137 5138 5139 5140 5142 5142 5143 5143 5144 5144 5145 5146 5147 5148 5149 5151 5153 5156 5159 5162 5162 5164 5164 5165 5168 5170 5172 5174 5176 5178 5179 5181 5185